Location: M�t�o Espelette
(43.3451°N, 1.4613°W)
Time: 12:16:04
(UTC+02:00)

ISS - Visible Passes

Search period start: 24 September 2018 00:00
Search period end: 04 October 2018 00:00
Orbit: 403 x 409 km, 51.6° (Epoch: 25 September)

Date Brightness Start Highest point End Pass type
(mag) Time Alt. Az. Time Alt. Az. Time Alt. Az.
24 Sep -2.8 21:52:07 10° W 21:55:16 42° NNW 21:55:39 40° N visible
25 Sep -3.6 21:00:04 10° WSW 21:03:21 69° NNW 21:06:05 14° NE visible
25 Sep -0.8 22:37:38 10° WNW 22:38:46 16° NW 22:38:46 16° NW visible
26 Sep -2.0 21:45:21 10° WNW 21:48:14 27° NNW 21:49:04 24° N visible
27 Sep -2.5 20:53:05 10° W 20:56:11 36° NNW 20:59:17 10° NE visible
27 Sep -0.8 22:30:53 10° NW 22:31:57 15° NW 22:31:57 15° NW visible
28 Sep -1.7 21:38:37 10° WNW 21:41:13 21° N 21:42:05 19° NNE visible
29 Sep -1.9 20:46:18 10° WNW 20:49:05 24° NNW 20:51:52 10° NE visible
29 Sep -0.8 22:23:52 10° NW 22:24:50 15° NNW 22:24:50 15° NNW visible
30 Sep -1.7 21:31:45 10° NW 21:34:12 19° N 21:34:52 18° NNE visible
01 Oct -1.7 20:39:29 10° WNW 20:42:01 20° N 20:44:33 10° NE visible
01 Oct -0.9 22:16:34 10° NW 22:17:32 16° NNW 22:17:32 16° NNW visible
02 Oct -1.9 21:24:35 10° NW 21:27:08 20° N 21:27:32 20° NNE visible
03 Oct -1.7 20:32:28 10° NW 20:34:56 19° N 20:37:23 10° NE visible
03 Oct -1.1 22:09:03 10° NW 22:10:11 18° NW 22:10:11 18° NW visible
